ZHUHAI-1 02 (CAS 4B) (42759 NORAD) Tracking and Keplerian Element Data

This shows tracking and keplerian element data for the satellite.

Feedback or suggestion? Click here.




ElementValue
Catalog42759
NameZHUHAI-1 02 (CAS 4B)
Epoch Orbit6006
Epoch Day198.72073396
Epoch Year2018
RAAN275.6408
Inclination43.0196
Eccentricity0.0010685
Argument of Perigee297.1897
Mean Anonmoly204.5385
Mean Motion15.09324144
Decay Rate7.1E-07
L11 42759U 17034B 18198.72073396 .00000071 00000-0 17950-4 0 9990
L22 42759 43.0196 275.6408 0010685 297.1897 204.5385 15.09324144 60069

Live tracking and technical data element details for ZHUHAI-1 02 (CAS 4B) (NORAD 42759). ZHUHAI-1 02 (CAS 4B) can be tracked NOW for your location showing map with azimuth and elevation plus other details from your city location.

Track the satellite on the map from your city or location and see movement details for azimuth, elevation, latitude, longitude, range, height, and movement on the map or in text.







IsCatalogInMostPopularTable: catalog: 42759, numindb: 106
Update: records affected: 1



GetName: 42759 ZHUHAI-1 02 (CAS 4B)

Hit Count: updated at: Thu, 19 Jul 2018 03:36:13 GMT